This is the latest recevied weather packets stored in our database for station/object EA2MKR. If no packets are shown the sender has not sent any weather packets the latest 10 day(s).
| Time | Temp. | Humidity | Pressure | Rain* | Wind** | Luminosity | Snow |
|---|---|---|---|---|---|---|---|
| 1777726288 | 13.33° C | 92% | 954.8 hPa | 7.62 mm | - | - | - |
| 1777725988 | 12.78° C | 90% | 954.9 hPa | 9.14 mm | - | - | - |
| 1777725687 | 12.78° C | 91% | 955 hPa | 11.18 mm | - | - | - |
| 1777725495 | 12.78° C | 91% | 955.2 hPa | 11.68 mm | - | - | - |
| 1777725087 | 12.78° C | 89% | 955.2 hPa | 11.68 mm | - | - | - |
| 1777724786 | 12.78° C | 88% | 955.4 hPa | 12.7 mm | - | - | - |
| 1777724485 | 12.78° C | 87% | 955.5 hPa | 12.45 mm | - | - | - |
| 1777724183 | 12.78° C | 87% | 955.8 hPa | 11.68 mm | - | - | - |
| 1777723881 | 12.78° C | 90% | 955.9 hPa | 10.67 mm | - | - | - |
| 1777723581 | 12.78° C | 91% | 956.1 hPa | 9.14 mm | - | - | - |
| 1777723276 | 12.78° C | 91% | 955.6 hPa | 7.11 mm | - | - | - |
| 1777722974 | 13.33° C | 91% | 955.7 hPa | 6.6 mm | - | - | - |
| 1777722671 | 13.33° C | 92% | 955.5 hPa | 5.08 mm | - | - | - |
| 1777722372 | 13.33° C | 92% | 955.6 hPa | 3.56 mm | - | - | - |
| 1777722071 | 13.33° C | 90% | 955.2 hPa | 1.78 mm | - | - | - |
| 1777721771 | 13.33° C | 90% | 955.2 hPa | 1.52 mm | - | - | - |
| 1777721594 | 13.89° C | 88% | 955 hPa | 1.27 mm | - | - | - |
| 1777721171 | 14.44° C | 88% | 955.2 hPa | 0 mm | - | - | - |
| 1777720870 | 14.44° C | 86% | 955.3 hPa | 0 mm | - | - | - |
| 1777720571 | 15° C | 85% | 955.4 hPa | 0 mm | - | - | - |
| 1777720270 | 15.56° C | 82% | 955.4 hPa | 0 mm | - | - | - |
| 1777719971 | 15.56° C | 83% | 955.2 hPa | 0 mm | - | - | - |
| 1777719670 | 15.56° C | 82% | 955.3 hPa | 0 mm | - | - | - |
| 1777719372 | 16.11° C | 81% | 955.4 hPa | 0 mm | - | - | - |
| 1777719070 | 16.11° C | 79% | 955.5 hPa | 0 mm | - | - | - |
* Rain latest hour (hover to see other rain measurements)
** Current wind speed in m/s (hover to see current wind gust speed)